Central Park, NY

2:04 PM EDT on September 19, 2017 (GMT -0400)
Central Park

Weather History for KNYC - June, 2012

Change the Weather History Date:

Wednesday, June 6, 2012

  Actual Average Record
Temperature  
Mean Temperature 63 °F 69 °F  
Max Temperature 72 °F 77 °F 98 °F (1925)
Min Temperature 54 °F 61 °F 47 °F (1945)
Degree Days  
Heating Degree Days 2 1  
Month to date heating degree days 15 9  
Since 1 June heating degree days 15 9  
Since 1 July heating degree days 3715 4740  
Cooling Degree Days 0 5  
Month to date cooling degree days 8 27  
Year to date cooling degree days 123 96  
Since 1 June cooling degree days 8 27  
Growing Degree Days 13 (Base 50)    
Moisture  
Dew Point 52 °F    
Average Humidity 65    
Maximum Humidity 86    
Minimum Humidity 44    
Precipitation  
Precipitation 0.01 in 0.16 in 2.62 in (2000)
Month to date precipitation 0.85 0.96  
Year to date precipitation 15.35 20.75  
Snow  
Snow 0.00 in 0.00 in 0.00 in (2002)
Month to date snowfall 0.0 0.0  
Since 1 July snowfall 7.4 25.8  
Snow Depth 0.00 in    
Sea Level Pressure  
Sea Level Pressure 29.97 in    
Wind  
Wind Speed 2 mph (West)    
Max Wind Speed 9 mph    
Max Gust Speed 17 mph    
Visibility 10 miles    
Events Rain    
T = Trace of Precipitation, MM = Missing Value Source: NWS Daily Summary

Daily Weather History Graph

Daily Weather History Graph

Search for Another Location

Airport or City:

Trip Planner

Search our weather history database for the weather conditions in past years. The results will help you decide how hot, cold, wet, or windy it might be!

Date:

Astronomy

Jun. 06, 2012 Rise Set
Actual Time 5:24 AM EDT 8:24 PM EDT
Civil Twilight 4:51 AM EDT 8:57 PM EDT
Nautical Twilight 4:09 AM EDT 9:39 PM EDT
Astronomical Twilight 3:20 AM EDT 10:29 PM EDT
Moon 10:33 PM EDT (6/6) 7:43 AM EDT (6/6)
Length of Visible Light 16h 05m
Length of Day
14h 59m
Waning Gibbous, 93% of the Moon is Illuminated
Jun 6
Waning Gibbous
Jun 11
Last Quarter
Jun 19
New
Jun 26
First Quarter
Jul 3
Full

Hourly Weather History & Observations

Time (EDT) Temp. Dew Point Humidity Pressure Visibility Wind Dir Wind Speed Gust Speed Precip Events Conditions
12:46 AM 57.2 °F 51.8 °F 82% 29.97 in 10.0 mi Calm Calm - N/A   Scattered Clouds
12:51 AM 55.9 °F 52.0 °F 87% 29.95 in 10.0 mi Calm Calm - N/A   Scattered Clouds
1:51 AM 55.0 °F 51.1 °F 86% 29.94 in 10.0 mi Calm Calm - N/A   Clear
7:51 AM 59.0 °F 53.1 °F 81% 29.99 in 10.0 mi Variable 3.5 mph - N/A   Mostly Cloudy
8:51 AM 61.0 °F 50.0 °F 67% 30.00 in 10.0 mi Calm Calm - N/A   Partly Cloudy
9:51 AM 64.0 °F 51.1 °F 63% 30.00 in 10.0 mi Variable 3.5 mph - N/A   Mostly Cloudy
10:51 AM 66.0 °F 50.0 °F 56% 30.00 in 10.0 mi Variable 4.6 mph - N/A   Partly Cloudy
11:51 AM 69.1 °F 48.9 °F 49% 29.99 in 10.0 mi North 4.6 mph - N/A   Clear
12:51 PM 70.0 °F 48.9 °F 47% 29.97 in 10.0 mi North - - N/A   Clear
1:51 PM 71.1 °F 48.9 °F 45% 29.96 in 10.0 mi Calm Calm - N/A   Mostly Cloudy
2:51 PM 70.0 °F 52.0 °F 53% 29.95 in 10.0 mi Calm Calm - N/A   Mostly Cloudy
3:51 PM 70.0 °F 51.1 °F 51% 29.94 in 10.0 mi Variable 4.6 mph - N/A   Overcast
4:51 PM 68.0 °F 51.8 °F 56% 29.96 in 10.0 mi Calm Calm - N/A   Overcast
5:51 PM 70.0 °F 50.0 °F 49% 29.94 in 10.0 mi Calm Calm - N/A   Overcast
6:51 PM 66.9 °F 54.0 °F 63% 29.95 in 10.0 mi Variable 4.6 mph - N/A   Partly Cloudy
7:51 PM 64.9 °F 55.9 °F 73% 29.96 in 5.0 mi SW 5.8 mph - 0.00 in Rain Light Rain
8:51 PM 59.0 °F 57.0 °F 93% 29.96 in 10.0 mi Calm Calm - 0.01 in   Partly Cloudy
9:51 PM 61.0 °F 55.9 °F 83% 29.98 in 10.0 mi Variable 3.5 mph - N/A   Scattered Clouds
10:51 PM 62.1 °F 55.0 °F 78% 29.98 in 10.0 mi North - - N/A   Scattered Clouds
11:51 PM 62.1 °F 55.0 °F 78% 29.98 in 10.0 mi WSW 5.8 mph - N/A   Scattered Clouds